When you browse on this site, cookies collect data to enhance your experience and personalize the content and advertising you see.
Visit our Privacy Policy to learn more. By continuing to use the site, you agree to this use of cookies and data.
  • In Deutschland
  • Länderverzeichnis
  • Für 7 Tage
  • Wassertemperatur
  • Satellitenkarten
  • Wetterkarte
  • Widgets
  • user-avatar
    Anmelden

    Stündliche Wetter Kalgoorlie

    Heute, 22 Januar, Dienstag

    Zeit Temperatur Niederschläge Wind Luftdruck Luftfeuchtigkeit
    00:00 +37°C° 0 mm 5 m/S 724 mmHg 20%
    01:00 +38°C° 0 mm 6 m/S 724 mmHg 21%
    02:00 +36°C° 0 mm 6 m/S 724 mmHg 22%
    03:00 +35°C° 0 mm 6 m/S 724 mmHg 23%
    04:00 +35°C° 0 mm 5 m/S 723 mmHg 24%
    05:00 +34°C° 0 mm 5 m/S 723 mmHg 25%
    06:00 +35°C° 0 mm 6 m/S 723 mmHg 24%
    07:00 +38°C° 0 mm 7 m/S 723 mmHg 23%
    08:00 +38°C° 0 mm 7 m/S 723 mmHg 27%
    09:00 +40°C° 0 mm 7 m/S 723 mmHg 23%
    10:00 +43°C° 0 mm 7 m/S 723 mmHg 18%
    11:00 +46°C° 0 mm 7 m/S 722 mmHg 14%
    12:00 +46°C° 0 mm 7 m/S 721 mmHg 13%
    13:00 +47°C° 0 mm 6 m/S 721 mmHg 11%
    14:00 +49°C° 0 mm 7 m/S 720 mmHg 11%
    15:00 +49°C° 0 mm 7 m/S 720 mmHg 11%
    16:00 +48°C° 0 mm 6 m/S 719 mmHg 11%
    17:00 +48°C° 0 mm 6 m/S 719 mmHg 11%
    18:00 +47°C° 0 mm 6 m/S 719 mmHg 12%
    19:00 +45°C° 0 mm 5 m/S 719 mmHg 13%
    20:00 +43°C° 0 mm 4 m/S 719 mmHg 14%
    21:00 +39°C° 0 mm 5 m/S 719 mmHg 29%
    22:00 +34°C° 0 mm 7 m/S 719 mmHg 43%
    23:00 +29°C° 0 mm 8 m/S 719 mmHg 58%

    Morgen, 23 Januar, Mittwoch

    Zeit Temperatur Niederschläge Wind Luftdruck Luftfeuchtigkeit
    00:00 +29°C° 0.3 mm 7 m/S 719 mmHg 58%
    01:00 +28°C° 0.3 mm 6 m/S 719 mmHg 58%
    02:00 +28°C° 0.3 mm 5 m/S 719 mmHg 58%
    03:00 +28°C° 0 mm 4 m/S 719 mmHg 57%
    04:00 +28°C° 0 mm 2 m/S 719 mmHg 56%
    05:00 +28°C° 0 mm 1 m/S 719 mmHg 55%
    06:00 +29°C° 0.1 mm 3 m/S 720 mmHg 54%
    07:00 +29°C° 0.1 mm 5 m/S 721 mmHg 53%
    08:00 +29°C° 0.1 mm 7 m/S 721 mmHg 52%
    09:00 +32°C° 0 mm 7 m/S 721 mmHg 45%
    10:00 +33°C° 0 mm 7 m/S 721 mmHg 39%
    11:00 +35°C° 0 mm 7 m/S 722 mmHg 32%
    12:00 +37°C° 0 mm 8 m/S 721 mmHg 27%
    13:00 +38°C° 0 mm 9 m/S 721 mmHg 22%
    14:00 +41°C° 0 mm 11 m/S 721 mmHg 17%
    15:00 +39°C° 0 mm 11 m/S 721 mmHg 15%
    16:00 +38°C° 0 mm 11 m/S 721 mmHg 13%
    17:00 +37°C° 0 mm 11 m/S 721 mmHg 11%
    18:00 +34°C° 0 mm 10 m/S 722 mmHg 14%
    19:00 +32°C° 0 mm 10 m/S 722 mmHg 16%
    20:00 +31°C° 0 mm 10 m/S 723 mmHg 18%
    21:00 +28°C° 0 mm 10 m/S 723 mmHg 25%
    22:00 +26°C° 0 mm 10 m/S 723 mmHg 33%
    23:00 +24°C° 0 mm 10 m/S 724 mmHg 40%

    übermorgen, 24 Januar, Donnerstag

    Zeit Temperatur Niederschläge Wind Luftdruck Luftfeuchtigkeit
    00:00 +23°C° 0 mm 10 m/S 724 mmHg 45%
    01:00 +21°C° 0 mm 10 m/S 724 mmHg 50%
    02:00 +19°C° 0 mm 10 m/S 724 mmHg 55%
    03:00 +19°C° 0 mm 9 m/S 724 mmHg 56%
    04:00 +18°C° 0 mm 8 m/S 724 mmHg 57%
    05:00 +18°C° 0 mm 8 m/S 725 mmHg 58%
    06:00 +18°C° 0 mm 7 m/S 725 mmHg 55%
    07:00 +20°C° 0 mm 7 m/S 726 mmHg 52%
    08:00 +21°C° 0 mm 7 m/S 726 mmHg 49%
    09:00 +23°C° 0 mm 6 m/S 726 mmHg 44%
    10:00 +26°C° 0 mm 6 m/S 726 mmHg 39%
    11:00 +27°C° 0 mm 6 m/S 726 mmHg 34%
    12:00 +29°C° 0 mm 5 m/S 726 mmHg 30%
    13:00 +30°C° 0 mm 5 m/S 726 mmHg 26%
    14:00 +33°C° 0 mm 5 m/S 725 mmHg 22%
    15:00 +33°C° 0 mm 5 m/S 725 mmHg 22%
    16:00 +34°C° 0 mm 4 m/S 725 mmHg 21%
    17:00 +34°C° 0 mm 4 m/S 725 mmHg 21%
    18:00 +33°C° 0 mm 5 m/S 726 mmHg 24%
    19:00 +32°C° 0 mm 6 m/S 726 mmHg 28%
    20:00 +30°C° 0 mm 7 m/S 727 mmHg 31%
    21:00 +28°C° 0 mm 8 m/S 727 mmHg 38%
    22:00 +24°C° 0 mm 8 m/S 728 mmHg 44%
    23:00 +22°C° 0 mm 9 m/S 728 mmHg 51%

    25 Januar, Freitag

    Zeit Temperatur Niederschläge Wind Luftdruck Luftfeuchtigkeit
    00:00 +21°C° 0 mm 8 m/S 728 mmHg 55%
    01:00 +20°C° 0 mm 8 m/S 728 mmHg 59%
    02:00 +18°C° 0 mm 7 m/S 728 mmHg 64%
    03:00 +18°C° 0 mm 7 m/S 728 mmHg 65%
    04:00 +17°C° 0 mm 7 m/S 728 mmHg 67%
    05:00 +17°C° 0 mm 6 m/S 728 mmHg 68%
    06:00 +19°C° 0 mm 6 m/S 729 mmHg 64%
    07:00 +20°C° 0 mm 6 m/S 729 mmHg 60%
    08:00 +21°C° 0 mm 6 m/S 730 mmHg 56%
    09:00 +23°C° 0 mm 5 m/S 730 mmHg 51%
    10:00 +25°C° 0 mm 5 m/S 729 mmHg 45%
    11:00 +27°C° 0 mm 4 m/S 729 mmHg 39%
    12:00 +29°C° 0 mm 4 m/S 729 mmHg 35%
    13:00 +30°C° 0 mm 3 m/S 728 mmHg 31%
    14:00 +33°C° 0 mm 3 m/S 727 mmHg 27%
    15:00 +32°C° 0 mm 2 m/S 727 mmHg 25%
    16:00 +34°C° 0 mm 2 m/S 727 mmHg 24%
    17:00 +33°C° 0 mm 1 m/S 726 mmHg 22%
    18:00 +34°C° 0 mm 2 m/S 727 mmHg 23%
    19:00 +33°C° 0 mm 3 m/S 727 mmHg 23%
    20:00 +33°C° 0 mm 4 m/S 727 mmHg 24%
    21:00 +32°C° 0 mm 4 m/S 728 mmHg 25%
    22:00 +32°C° 0 mm 4 m/S 728 mmHg 26%
    23:00 +30°C° 0 mm 5 m/S 728 mmHg 26%

    26 Januar, Samstag

    Zeit Temperatur Niederschläge Wind Luftdruck Luftfeuchtigkeit
    00:00 +28°C° 0 mm 6 m/S 728 mmHg 32%
    01:00 +26°C° 0 mm 6 m/S 728 mmHg 39%
    02:00 +24°C° 0 mm 7 m/S 727 mmHg 45%
    03:00 +23°C° 0 mm 7 m/S 728 mmHg 48%
    04:00 +22°C° 0 mm 7 m/S 728 mmHg 52%
    05:00 +21°C° 0 mm 6 m/S 728 mmHg 55%
    06:00 +22°C° 0 mm 6 m/S 729 mmHg 53%
    07:00 +22°C° 0 mm 6 m/S 729 mmHg 52%
    08:00 +23°C° 0 mm 6 m/S 730 mmHg 50%
    09:00 +26°C° 0 mm 6 m/S 730 mmHg 45%
    10:00 +28°C° 0 mm 6 m/S 729 mmHg 40%
    11:00 +30°C° 0 mm 5 m/S 729 mmHg 35%
    12:00 +33°C° 0 mm 5 m/S 729 mmHg 33%
    13:00 +34°C° 0 mm 5 m/S 728 mmHg 30%
    14:00 +35°C° 0 mm 5 m/S 728 mmHg 27%
    15:00 +36°C° 0 mm 4 m/S 727 mmHg 26%
    16:00 +36°C° 0 mm 4 m/S 727 mmHg 24%
    17:00 +36°C° 0 mm 3 m/S 727 mmHg 22%
    18:00 +36°C° 0 mm 4 m/S 727 mmHg 22%
    19:00 +35°C° 0 mm 4 m/S 728 mmHg 23%
    20:00 +34°C° 0 mm 5 m/S 728 mmHg 23%
    21:00 +32°C° 0 mm 7 m/S 729 mmHg 29%
    22:00 +28°C° 0 mm 10 m/S 729 mmHg 35%
    23:00 +26°C° 0 mm 13 m/S 729 mmHg 42%

    27 Januar, Sonntag

    Zeit Temperatur Niederschläge Wind Luftdruck Luftfeuchtigkeit
    00:00 +23°C° 0 mm 11 m/S 729 mmHg 47%
    01:00 +22°C° 0 mm 10 m/S 729 mmHg 53%
    02:00 +19°C° 0 mm 9 m/S 729 mmHg 59%
    03:00 +20°C° 0 mm 8 m/S 729 mmHg 62%
    04:00 +18°C° 0 mm 8 m/S 730 mmHg 64%
    05:00 +18°C° 0 mm 7 m/S 730 mmHg 66%
    06:00 +20°C° 0 mm 7 m/S 730 mmHg 62%
    07:00 +21°C° 0 mm 7 m/S 731 mmHg 58%
    08:00 +22°C° 0 mm 7 m/S 731 mmHg 55%
    09:00 +24°C° 0 mm 6 m/S 731 mmHg 48%
    10:00 +28°C° 0 mm 6 m/S 731 mmHg 41%
    11:00 +30°C° 0 mm 5 m/S 730 mmHg 35%
    12:00 +32°C° 0 mm 5 m/S 730 mmHg 32%
    13:00 +34°C° 0 mm 4 m/S 729 mmHg 28%
    14:00 +35°C° 0 mm 4 m/S 728 mmHg 25%
    15:00 +36°C° 0 mm 4 m/S 728 mmHg 24%
    16:00 +36°C° 0 mm 4 m/S 728 mmHg 23%
    17:00 +37°C° 0 mm 3 m/S 727 mmHg 22%
    18:00 +36°C° 0 mm 4 m/S 728 mmHg 23%
    19:00 +35°C° 0 mm 4 m/S 728 mmHg 24%
    20:00 +34°C° 0 mm 5 m/S 728 mmHg 24%
    21:00 +34°C° 0 mm 5 m/S 729 mmHg 24%
    22:00 +33°C° 0 mm 5 m/S 729 mmHg 25%
    23:00 +32°C° 0 mm 5 m/S 729 mmHg 25%
    Mehr zeigen